sat.trackr.live / text

‹ back to catalog

SUPERVIEW NEO-2 03

NORAD 62079 · 2024-218B

PAYLOAD ACTIVE UNKNOWN

§ Identity

Operator
Country
PRC
Launch date
2024-11-24
Launch site
JSC
Launch vehicle
Mass (kg)
RCS (m²)

External: N2YO · Heavens-Above · Gunter

§ Orbital elements

Epoch: 2026-09-22T13:35:12.145056Z

Period
94.75 min
Inclination
97.4389°
Eccentricity
0.0001596
Mean motion
15.19718956 rev/d
Perigee alt
505.6 km
Apogee alt
507.8 km
Semi-major
6,884.8 km
B*
4.4881e-7
RAAN
271.5173°
Arg perigee
87.7805°
Mean anomaly
272.3613°
Rev number
10,123

§ Raw data

SUPERVIEW NEO-2 031 62079U 24218B   26265.56611279 -.00000058  00000+0  44881-6 0  99932 62079  97.4389 271.5173 0001596  87.7805 272.3613 15.19718956101231

JSON: /api/v1/satellites/62079 · /tle

For live sub-satellite position, see the globe view (requires WebGL).

§ Visibility from observer

Set your observer location to see the next 7 days of passes ≥ 10°. The values pass through the URL so the page stays shareable.

No JS? Fill the form by hand. The geolocation button needs JavaScript.